Time,TemperatureF,DewpointF,PressureIn,WindDirection,WindDirectionDegrees,WindSpeedMPH,WindSpeedGustMPH,Humidity,HourlyPrecipIn,Conditions,Clouds,dailyrainin,SoftwareType,DateUTC
2013-02-27 00:12:00,33.3,30.0,30.06,NNE,29,0.0,2.0,87,0.00,,,0.00,weatherlink.com 1.10,2013-02-27 05:12:00,
2013-02-27 00:27:00,33.1,30.0,30.05,NW,306,0.0,2.0,89,0.00,,,0.00,weatherlink.com 1.10,2013-02-27 05:27:00,
2013-02-27 00:42:00,32.8,30.0,30.05,SSE,148,0.0,1.0,89,0.00,,,0.00,weatherlink.com 1.10,2013-02-27 05:42:00,
2013-02-27 00:57:00,32.9,31.0,30.05,NE,49,3.0,3.0,91,0.00,,,0.00,weatherlink.com 1.10,2013-02-27 05:57:00,
2013-02-27 01:12:00,32.5,31.0,30.03,ESE,120,0.0,5.0,92,0.00,,,0.00,weatherlink.com 1.10,2013-02-27 06:12:00,
2013-02-27 01:27:00,32.3,31.0,30.03,ENE,60,1.0,4.0,93,0.00,,,0.00,weatherlink.com 1.10,2013-02-27 06:27:00,
2013-02-27 01:42:00,32.4,31.0,30.03,SE,141,1.0,7.0,93,0.00,,,0.00,weatherlink.com 1.10,2013-02-27 06:42:00,
2013-02-27 01:57:00,32.4,31.0,30.02,SSW,203,1.0,6.0,93,0.00,,,0.00,weatherlink.com 1.10,2013-02-27 06:57:00,
2013-02-27 02:12:00,32.5,31.0,30.00,South,169,1.0,9.0,93,0.00,,,0.00,weatherlink.com 1.10,2013-02-27 07:12:00,
2013-02-27 02:27:00,32.6,31.0,30.00,SSE,168,2.0,8.0,94,0.00,,,0.00,weatherlink.com 1.10,2013-02-27 07:27:00,
2013-02-27 02:42:00,32.9,31.0,29.98,SE,129,1.0,7.0,94,0.00,,,0.00,weatherlink.com 1.10,2013-02-27 07:42:00,
2013-02-27 02:57:00,33.0,32.0,29.96,SSW,209,1.0,7.0,95,0.00,,,0.00,weatherlink.com 1.10,2013-02-27 07:57:00,
2013-02-27 03:13:00,33.3,32.0,29.95,ESE,105,1.0,8.0,95,0.00,,,0.00,weatherlink.com 1.10,2013-02-27 08:13:00,
2013-02-27 03:27:00,33.4,32.0,29.95,NNE,30,0.0,3.0,95,0.00,,,0.00,weatherlink.com 1.10,2013-02-27 08:27:00,
2013-02-27 03:42:00,33.7,33.0,29.93,East,94,1.0,6.0,95,0.00,,,0.00,weatherlink.com 1.10,2013-02-27 08:42:00,
2013-02-27 03:59:00,33.9,33.0,29.92,SSW,200,1.0,3.0,95,0.04,,,0.04,weatherlink.com 1.10,2013-02-27 08:59:00,
2013-02-27 04:13:00,34.0,33.0,29.91,SE,127,1.0,5.0,95,0.07,,,0.07,weatherlink.com 1.10,2013-02-27 09:13:00,
2013-02-27 04:28:00,34.1,33.0,29.90,West,260,0.0,6.0,95,0.09,,,0.09,weatherlink.com 1.10,2013-02-27 09:28:00,
2013-02-27 04:43:00,34.2,33.0,29.91,SE,139,1.0,4.0,95,0.13,,,0.13,weatherlink.com 1.10,2013-02-27 09:43:00,
2013-02-27 04:58:00,34.3,33.0,29.88,NE,53,1.0,5.0,95,0.13,,,0.17,weatherlink.com 1.10,2013-02-27 09:58:00,
2013-02-27 05:13:00,34.3,33.0,29.89,SSE,148,0.0,6.0,95,0.14,,,0.21,weatherlink.com 1.10,2013-02-27 10:13:00,
2013-02-27 05:28:00,34.3,33.0,29.87,ENE,60,5.0,8.0,96,0.17,,,0.26,weatherlink.com 1.10,2013-02-27 10:28:00,
2013-02-27 05:43:00,34.4,33.0,29.86,SSW,210,0.0,5.0,96,0.17,,,0.31,weatherlink.com 1.10,2013-02-27 10:43:00,
2013-02-27 05:58:00,34.6,34.0,29.86,SSE,153,3.0,6.0,96,0.16,,,0.33,weatherlink.com 1.10,2013-02-27 10:58:00,
2013-02-27 06:13:00,34.7,34.0,29.84,North,360,3.0,4.0,96,0.13,,,0.35,weatherlink.com 1.10,2013-02-27 11:13:00,
2013-02-27 06:28:00,34.7,34.0,29.84,South,189,1.0,9.0,95,0.11,,,0.37,weatherlink.com 1.10,2013-02-27 11:28:00,
2013-02-27 06:43:00,34.5,34.0,29.83,NW,316,1.0,5.0,96,0.08,,,0.39,weatherlink.com 1.10,2013-02-27 11:43:00,
2013-02-27 06:58:00,34.5,34.0,29.82,NE,42,2.0,5.0,96,0.08,,,0.41,weatherlink.com 1.10,2013-02-27 11:58:00,
2013-02-27 07:13:00,34.8,34.0,29.81,SE,142,2.0,6.0,96,0.08,,,0.43,weatherlink.com 1.10,2013-02-27 12:13:00,
2013-02-27 07:28:00,35.1,34.0,29.80,South,181,1.0,5.0,96,0.09,,,0.46,weatherlink.com 1.10,2013-02-27 12:28:00,
2013-02-27 07:43:00,35.3,35.0,29.80,ENE,65,3.0,5.0,97,0.09,,,0.48,weatherlink.com 1.10,2013-02-27 12:43:00,
2013-02-27 07:58:00,35.7,35.0,29.79,NNW,340,2.0,4.0,97,0.09,,,0.50,weatherlink.com 1.10,2013-02-27 12:58:00,
2013-02-27 08:13:00,35.9,35.0,29.79,SE,129,0.0,4.0,97,0.09,,,0.53,weatherlink.com 1.10,2013-02-27 13:13:00,
2013-02-27 08:28:00,36.5,36.0,29.77,South,179,0.0,6.0,97,0.09,,,0.54,weatherlink.com 1.10,2013-02-27 13:28:00,
2013-02-27 08:43:00,36.6,36.0,29.76,ENE,75,3.0,7.0,96,0.07,,,0.55,weatherlink.com 1.10,2013-02-27 13:43:00,
2013-02-27 08:58:00,36.8,36.0,29.75,SE,128,1.0,6.0,96,0.06,,,0.57,weatherlink.com 1.10,2013-02-27 13:58:00,
2013-02-27 09:13:00,37.1,36.0,29.74,SSE,163,1.0,5.0,96,0.06,,,0.58,weatherlink.com 1.10,2013-02-27 14:13:00,
2013-02-27 09:28:00,37.6,37.0,29.73,South,181,1.0,5.0,96,0.05,,,0.59,weatherlink.com 1.10,2013-02-27 14:28:00,
2013-02-27 09:44:00,38.0,37.0,29.72,ESE,103,2.0,6.0,95,0.06,,,0.61,weatherlink.com 1.10,2013-02-27 14:44:00,
2013-02-27 09:58:00,38.3,37.0,29.71,NE,51,0.0,4.0,95,0.06,,,0.63,weatherlink.com 1.10,2013-02-27 14:58:00,
2013-02-27 10:13:00,38.9,37.0,29.71,SSE,152,0.0,6.0,94,0.06,,,0.65,weatherlink.com 1.10,2013-02-27 15:13:00,
2013-02-27 10:29:00,39.6,38.0,29.70,SSE,159,1.0,8.0,93,0.08,,,0.68,weatherlink.com 1.10,2013-02-27 15:29:00,
2013-02-27 10:45:00,39.3,38.0,29.70,SSW,200,0.0,4.0,94,0.09,,,0.70,weatherlink.com 1.10,2013-02-27 15:45:00,
2013-02-27 10:59:00,39.4,38.0,29.68,South,174,1.0,4.0,95,0.09,,,0.72,weatherlink.com 1.10,2013-02-27 15:59:00,
2013-02-27 11:14:00,40.1,39.0,29.67,North,8,4.0,6.0,95,0.09,,,0.74,weatherlink.com 1.10,2013-02-27 16:14:00,
2013-02-27 11:29:00,40.2,39.0,29.67,SSE,160,1.0,3.0,95,0.08,,,0.76,weatherlink.com 1.10,2013-02-27 16:29:00,
2013-02-27 11:44:00,40.2,39.0,29.68,NNE,17,0.0,3.0,96,0.10,,,0.80,weatherlink.com 1.10,2013-02-27 16:44:00,
2013-02-27 11:59:00,40.1,39.0,29.66,South,191,1.0,3.0,96,0.15,,,0.87,weatherlink.com 1.10,2013-02-27 16:59:00,
2013-02-27 12:14:00,40.2,39.0,29.65,ESE,116,3.0,4.0,97,0.16,,,0.90,weatherlink.com 1.10,2013-02-27 17:14:00,
2013-02-27 12:29:00,40.3,40.0,29.63,SSE,162,1.0,6.0,97,0.15,,,0.91,weatherlink.com 1.10,2013-02-27 17:29:00,
2013-02-27 12:44:00,40.7,40.0,29.63,NE,51,1.0,4.0,96,0.13,,,0.93,weatherlink.com 1.10,2013-02-27 17:44:00,
2013-02-27 12:58:00,41.1,40.0,29.62,SE,145,0.0,5.0,95,0.09,,,0.95,weatherlink.com 1.10,2013-02-27 17:58:00,
2013-02-27 13:13:00,41.1,40.0,29.61,SSW,203,0.0,2.0,96,0.10,,,1.00,weatherlink.com 1.10,2013-02-27 18:13:00,
2013-02-27 13:28:00,41.2,40.0,29.60,South,186,1.0,4.0,96,0.09,,,1.01,weatherlink.com 1.10,2013-02-27 18:28:00,
2013-02-27 13:43:00,41.5,40.0,29.60,NW,306,1.0,3.0,95,0.09,,,1.02,weatherlink.com 1.10,2013-02-27 18:43:00,
2013-02-27 13:58:00,41.8,40.0,29.61,SSE,155,1.0,4.0,94,0.06,,,1.02,weatherlink.com 1.10,2013-02-27 18:58:00,
2013-02-27 14:13:00,41.6,40.0,29.60,NW,304,1.0,2.0,95,0.02,,,1.02,weatherlink.com 1.10,2013-02-27 19:13:00,
2013-02-27 14:28:00,41.6,40.0,29.60,SSE,148,1.0,3.0,95,0.02,,,1.03,weatherlink.com 1.10,2013-02-27 19:28:00,
2013-02-27 14:43:00,41.5,40.0,29.59,SSW,211,0.0,2.0,95,0.02,,,1.04,weatherlink.com 1.10,2013-02-27 19:43:00,
2013-02-27 14:59:00,41.3,40.0,29.59,NE,43,0.0,2.0,96,0.02,,,1.05,weatherlink.com 1.10,2013-02-27 19:59:00,
2013-02-27 15:14:00,41.2,40.0,29.58,NNE,29,0.0,1.0,97,0.03,,,1.06,weatherlink.com 1.10,2013-02-27 20:14:00,
2013-02-27 15:29:00,40.8,40.0,29.58,NNW,335,0.0,1.0,97,0.03,,,1.06,weatherlink.com 1.10,2013-02-27 20:29:00,
2013-02-27 15:44:00,40.8,40.0,29.58,NNW,328,0.0,1.0,97,0.05,,,1.09,weatherlink.com 1.10,2013-02-27 20:44:00,
2013-02-27 16:14:00,40.2,40.0,29.59,NE,51,0.0,1.0,98,0.07,,,1.13,weatherlink.com 1.10,2013-02-27 21:14:00,
2013-02-27 16:29:00,39.8,39.0,29.59,North,11,0.0,2.0,98,0.10,,,1.17,weatherlink.com 1.10,2013-02-27 21:29:00,
2013-02-27 16:44:00,40.4,40.0,29.59,NE,54,0.0,2.0,98,0.09,,,1.17,weatherlink.com 1.10,2013-02-27 21:44:00,
2013-02-27 16:59:00,39.9,39.0,29.60,NE,54,0.0,1.0,98,0.08,,,1.18,weatherlink.com 1.10,2013-02-27 21:59:00,
2013-02-27 17:14:00,39.3,39.0,29.61,NE,53,0.0,1.0,98,0.07,,,1.20,weatherlink.com 1.10,2013-02-27 22:14:00,
2013-02-27 17:29:00,39.5,39.0,29.61,NE,53,0.0,0.0,98,0.04,,,1.20,weatherlink.com 1.10,2013-02-27 22:29:00,
2013-02-27 17:44:00,39.1,39.0,29.61,NE,53,0.0,0.0,98,0.05,,,1.22,weatherlink.com 1.10,2013-02-27 22:44:00,
2013-02-27 17:59:00,38.8,38.0,29.62,NE,54,0.0,0.0,98,0.04,,,1.22,weatherlink.com 1.10,2013-02-27 22:59:00,
2013-02-27 18:14:00,38.9,38.0,29.62,NE,54,0.0,0.0,98,0.02,,,1.22,weatherlink.com 1.10,2013-02-27 23:14:00,
2013-02-27 18:29:00,38.9,38.0,29.63,NE,53,0.0,0.0,98,0.02,,,1.22,weatherlink.com 1.10,2013-02-27 23:29:00,
2013-02-27 18:44:00,38.9,38.0,29.64,NE,54,0.0,0.0,98,0.03,,,1.25,weatherlink.com 1.10,2013-02-27 23:44:00,
2013-02-27 18:59:00,38.8,38.0,29.64,NE,54,0.0,0.0,98,0.05,,,1.27,weatherlink.com 1.10,2013-02-27 23:59:00,
2013-02-27 19:14:00,38.7,38.0,29.63,NE,54,0.0,0.0,98,0.06,,,1.28,weatherlink.com 1.10,2013-02-28 00:14:00,
2013-02-27 19:29:00,38.7,38.0,29.63,SSE,158,0.0,0.0,98,0.05,,,1.28,weatherlink.com 1.10,2013-02-28 00:29:00,
2013-02-27 19:44:00,38.9,38.0,29.63,SSE,158,0.0,0.0,98,0.02,,,1.28,weatherlink.com 1.10,2013-02-28 00:44:00,
2013-02-27 19:59:00,39.0,39.0,29.64,SSE,158,0.0,0.0,99,0.01,,,1.28,weatherlink.com 1.10,2013-02-28 00:59:00,
2013-02-27 20:14:00,38.9,38.0,29.64,SSE,158,0.0,0.0,98,0.00,,,1.28,weatherlink.com 1.10,2013-02-28 01:14:00,
2013-02-27 20:29:00,38.5,38.0,29.64,SSE,158,0.0,0.0,98,0.00,,,1.28,weatherlink.com 1.10,2013-02-28 01:29:00,
2013-02-27 20:44:00,38.4,38.0,29.65,SSE,158,0.0,1.0,98,0.00,,,1.28,weatherlink.com 1.10,2013-02-28 01:44:00,
2013-02-27 20:59:00,38.5,38.0,29.65,SSE,158,0.0,1.0,99,0.00,,,1.28,weatherlink.com 1.10,2013-02-28 01:59:00,
2013-02-27 21:14:00,38.1,38.0,29.65,SSE,158,0.0,1.0,98,0.00,,,1.28,weatherlink.com 1.10,2013-02-28 02:14:00,
2013-02-27 21:30:00,37.2,37.0,29.66,SSE,158,0.0,0.0,98,0.00,,,1.28,weatherlink.com 1.10,2013-02-28 02:30:00,
2013-02-27 21:44:00,37.2,37.0,29.66,SSE,158,0.0,1.0,99,0.00,,,1.28,weatherlink.com 1.10,2013-02-28 02:44:00,
2013-02-27 21:59:00,37.2,37.0,29.67,SSE,157,0.0,1.0,99,0.00,,,1.28,weatherlink.com 1.10,2013-02-28 02:59:00,
2013-02-27 22:14:00,36.6,36.0,29.66,SSE,158,0.0,0.0,98,0.00,,,1.28,weatherlink.com 1.10,2013-02-28 03:14:00,
2013-02-27 22:29:00,36.4,36.0,29.66,SSE,158,0.0,1.0,98,0.00,,,1.28,weatherlink.com 1.10,2013-02-28 03:29:00,
2013-02-27 22:44:00,35.9,35.0,29.66,SSE,157,0.0,0.0,98,0.01,,,1.28,weatherlink.com 1.10,2013-02-28 03:44:00,
2013-02-27 23:00:00,35.8,36.0,29.66,SSE,158,0.0,0.0,99,0.01,,,1.28,weatherlink.com 1.10,2013-02-28 04:00:00,
2013-02-27 23:30:00,35.4,35.0,29.66,SSE,158,0.0,0.0,99,0.01,,,1.28,weatherlink.com 1.10,2013-02-28 04:30:00,
2013-02-27 23:45:00,34.7,34.0,29.66,SSE,158,0.0,0.0,98,0.00,,,1.28,weatherlink.com 1.10,2013-02-28 04:45:00,